GW6277 Weather Reports


time (UTC)temp
C
wind
direction
speed
KPH
gust
KPH
rain 1hr
cm
rain 24hr
cm
rain mn
cm
humidity
%
barometer
mb
20260503000832 9 157 0.0 0.0 0.00 0.30 0.30 86 1008.7
20260503000329 9 157 0.0 0.0 0.00 0.30 0.30 86 1008.7
20260502235826 10 157 0.0 0.0 0.00 0.30 0.30 85 1008.6
20260502235324 10 157 0.0 0.0 0.00 0.30 0.30 85 1008.7
20260502234820 10 157 0.0 0.0 0.00 0.30 0.30 84 1008.6
20260502234317 10 157 0.0 0.0 0.00 0.30 0.30 84 1008.7
20260502233814 10 157 0.0 0.0 0.00 0.30 0.30 84 1008.6
20260502233310 10 157 0.0 0.0 0.00 0.30 0.30 83 1008.3
20260502232807 10 157 0.0 0.0 0.00 0.30 0.30 83 1008.5
20260502232304 10 157 0.0 0.0 0.00 0.30 0.30 83 1008.5
20260502231800 10 154 0.0 0.0 0.00 0.30 0.30 84 1008.5
20260502231258 10 157 0.0 0.0 0.00 0.30 0.30 84 1008.7
20260502230756 10 154 0.0 1.6 0.00 0.30 0.30 83 1008.6
20260502230254 10 153 0.0 0.0 0.00 0.30 0.30 83 1008.5
20260502225750 10 153 0.0 0.0 0.00 0.30 0.30 82 1008.6
20260502225247 10 153 0.0 0.0 0.00 0.30 0.30 82 1008.6
20260502224743 10 154 0.0 0.0 0.00 0.30 0.30 82 1008.5
20260502224240 10 156 0.0 0.0 0.00 0.30 0.30 80 1008.3
20260502223738 10 143 0.0 0.0 0.00 0.30 0.30 81 1008.5
20260502223235 10 152 0.0 0.0 0.00 0.30 0.30 81 1008.5
20260502222733 10 152 1.6 1.6 0.00 0.30 0.30 82 1008.4
20260502222229 10 150 0.0 0.0 0.00 0.30 0.30 82 1008.4
20260502221725 10 150 0.0 0.0 0.00 0.30 0.30 83 1008.5
20260502221222 10 151 0.0 1.6 0.00 0.30 0.30 83 1008.4
20260502220719 10 142 0.0 0.0 0.00 0.30 0.30 84 1008.3
20260502220215 10 141 0.0 0.0 0.00 0.30 0.30 84 1008.4
20260502215712 10 139 0.0 0.0 0.00 0.30 0.30 83 1008.4
20260502215209 10 138 0.0 0.0 0.00 0.30 0.30 83 1008.5
20260502214706 10 138 0.0 0.0 0.00 0.30 0.30 82 1008.5
20260502214203 10 138 0.0 0.0 0.00 0.30 0.30 82 1008.5
20260502213700 10 138 0.0 0.0 0.00 0.30 0.30 81 1008.7
20260502213157 10 138 0.0 0.0 0.00 0.30 0.30 81 1008.6
20260502212656 10 155 0.0 0.0 0.00 0.30 0.30 79 1008.4
20260502212154 10 99 0.0 0.0 0.00 0.30 0.30 80 1008.6
20260502211649 10 100 0.0 1.6 0.00 0.30 0.30 79 1008.8
20260502211147 10 151 0.0 0.0 0.00 0.30 0.30 79 1008.6
20260502210644 10 97 1.6 1.6 0.00 0.30 0.30 80 1008.6
20260502210141 10 127 1.6 1.6 0.00 0.30 0.30 80 1008.5
20260502205638 10 120 0.0 1.6 0.00 0.30 0.30 81 1008.7
20260502205134 10 137 0.0 0.0 0.00 0.30 0.30 80 1008.7
20260502204631 10 95 0.0 1.6 0.00 0.30 0.30 79 1008.6
20260502204129 10 112 0.0 0.0 0.00 0.30 0.30 77 1008.6
20260502203626 11 54 4.8 4.8 0.00 0.30 0.30 75 1008.6
20260502203124 11 327 4.8 6.4 0.00 0.30 0.30 72 1008.8
20260502202619 11 140 0.0 1.6 0.00 0.30 0.30 71 1008.4
20260502202117 12 304 3.2 4.8 0.00 0.30 0.30 66 1008.5
20260502201613 12 265 4.8 4.8 0.00 0.30 0.30 59 1008.3
20260502201110 13 203 3.2 3.2 0.00 0.30 0.30 53 1008.3
20260502200606 13 146 1.6 3.2 0.00 0.30 0.30 55 1008.3
20260502195601 13 168 1.6 3.2 0.00 0.30 0.30 58 1008.1
20260502195057 13 190 3.2 3.2 0.00 0.30 0.30 58 1008.2
20260502194554 13 219 8.0 11.3 0.00 0.30 0.30 58 1008.4
20260502194050 13 209 4.8 6.4 0.00 0.30 0.30 58 1008.1
20260502193547 13 218 4.8 9.7 0.00 0.30 0.30 61 1008.3
20260502193044 13 149 1.6 3.2 0.00 0.30 0.30 63 1008.3
20260502192539 13 132 1.6 1.6 0.00 0.30 0.30 62 1008.8
20260502192037 13 135 1.6 1.6 0.00 0.30 0.30 63 1008.8
20260502191534 13 133 0.0 1.6 0.00 0.30 0.30 63 1008.6
20260502191032 13 199 3.2 3.2 0.00 0.30 0.30 62 1008.7
20260502190529 13 209 3.2 4.8 0.00 0.30 0.30 61 1008.7
20260502190026 13 188 4.8 6.4 0.00 0.30 0.30 62 1008.8
20260502185521 13 146 8.0 11.3 0.00 0.30 0.30 60 1008.8
20260502185018 13 152 0.0 1.6 0.00 0.30 0.30 63 1008.8
20260502184513 13 145 3.2 4.8 0.00 0.30 0.30 63 1008.7
20260502184010 13 133 1.6 1.6 0.00 0.30 0.30 63 1008.6
20260502183506 13 140 0.0 1.6 0.00 0.30 0.30 64 1008.8
20260502183001 13 208 4.8 6.4 0.00 0.30 0.30 61 1008.9
20260502182457 13 194 3.2 6.4 0.00 0.30 0.30 61 1008.7
20260502181953 13 221 8.0 9.7 0.00 0.30 0.30 58 1008.8
20260502181452 13 188 3.2 4.8 0.00 0.30 0.30 62 1008.8
20260502180950 14 152 0.0 0.0 0.00 0.30 0.30 59 1008.6
20260502180447 15 133 1.6 1.6 0.00 0.30 0.30 57 1008.9
20260502170406 13 231 1.6 3.2 0.00 0.30 0.30 57 1009.5
20260502163849 12 110 1.6 1.6 0.00 0.30 0.30 73 1009.5
20260502163345 12 128 0.0 0.0 0.00 0.30 0.30 74 1009.5
20260502162843 12 131 0.0 0.0 0.00 0.30 0.30 74 1009.6
20260502162339 12 145 0.0 0.0 0.00 0.30 0.30 77 1009.6
20260502161837 12 145 0.0 0.0 0.00 0.30 0.30 79 1009.6
20260502161332 12 146 0.0 0.0 0.00 0.30 0.30 79 1009.8
20260502160831 11 140 1.6 1.6 0.00 0.30 0.30 80 1010.1
20260502160329 11 152 1.6 1.6 0.00 0.30 0.30 80 1010.1
20260502152258 10 196 3.2 4.8 0.00 0.30 0.30 87 1010.3
20260502151756 10 149 0.0 0.0 0.00 0.30 0.30 88 1010.5
20260502151253 10 192 4.8 4.8 0.00 0.30 0.30 89 1010.3
20260502150751 10 157 0.0 1.6 0.00 0.30 0.30 89 1010.2
20260502150247 10 167 0.0 1.6 0.00 0.30 0.30 88 1010.3
20260502130635 8 143 0.0 0.0 0.18 0.20 0.20 91 1011.2
20260502130133 8 124 0.0 0.0 0.18 0.20 0.20 91 1011.2
20260502123619 8 98 0.0 0.0 0.13 0.15 0.15 91 1011.4
20260502123115 8 136 0.0 0.0 0.00 0.13 0.13 92 1011.4
20260502122612 8 136 0.0 1.6 0.00 0.13 0.13 91 1011.3
20260502122109 8 105 0.0 1.6 0.00 0.13 0.13 91 1011.2
20260502121606 8 101 0.0 0.0 0.00 0.13 0.13 91 1011.0
20260502121104 8 4 3.2 4.8 0.00 0.13 0.13 92 1010.8
20260502120600 8 85 1.6 3.2 0.00 0.13 0.13 92 1010.8
20260502115556 8 43 1.6 1.6 0.00 0.13 0.13 92 1010.4
20260502115051 8 102 1.6 1.6 0.00 0.13 0.13 92 1010.5
20260502114548 8 111 0.0 0.0 0.00 0.13 0.13 92 1010.3
20260502114044 8 112 0.0 0.0 0.00 0.13 0.13 92 1010.5
20260502113542 8 130 0.0 0.0 0.18 0.13 0.13 92 1010.6
20260502113041 8 107 0.0 0.0 0.48 0.13 0.13 92 1010.4
20260502112538 8 107 0.0 0.0 0.30 0.10 0.10 91 1010.7
20260502112035 8 104 0.0 0.0 0.13 0.05 0.05 91 1010.6
20260502111532 8 136 0.0 0.0 0.13 0.05 0.05 91 1010.6
20260502111030 8 115 0.0 0.0 0.00 0.03 0.03 91 1010.4
20260502110527 8 147 0.0 0.0 0.00 0.03 0.03 91 1010.3
20260502110025 8 147 0.0 0.0 0.00 0.03 0.03 91 1010.3
20260502105522 8 147 0.0 0.0 0.18 0.03 0.03 91 1010.4
20260502105019 8 150 1.6 1.6 0.18 0.03 0.03 91 1010.2
20260502104516 8 174 1.6 1.6 0.00 0.00 0.00 91 1010.2
20260502104014 7 140 0.0 0.0 0.00 0.00 0.00 91 1010.2
20260502103511 7 141 0.0 0.0 0.00 0.00 0.00 91 1010.2
20260502103009 7 137 0.0 0.0 0.00 0.00 0.00 91 1010.0
20260502102505 7 137 0.0 0.0 0.00 0.00 0.00 91 1010.0
20260502102002 7 137 0.0 0.0 0.00 0.00 0.00 91 1009.9
20260502101500 7 138 0.0 1.6 0.00 0.00 0.00 91 1009.8
20260502100958 7 105 0.0 0.0 0.00 0.00 0.00 91 1009.7
20260502100457 7 104 0.0 0.0 0.00 0.00 0.00 91 1009.9
20260502091431 8 108 0.0 0.0 0.00 0.00 0.00 87 1009.5
20260502090928 8 107 0.0 0.0 0.00 0.00 0.00 86 1009.5
20260502090425 8 107 0.0 0.0 0.00 0.00 0.00 84 1009.7
20260502071320 8 141 0.0 0.0 0.00 0.00 0.00 70 1009.8
20260502070818 8 207 4.8 4.8 0.00 0.00 0.00 72 1009.9
20260502070315 9 121 0.0 0.0 0.00 0.00 0.00 70 1009.3
20260502065814 10 106 0.0 0.0 0.00 0.00 0.00 69 1009.5
20260502065312 9 94 1.6 1.6 0.00 0.00 0.00 67 1009.9
20260502064810 8 99 0.0 1.6 0.00 0.00 0.00 68 1009.9
20260502064308 8 149 0.0 0.0 0.00 0.00 0.00 68 1010.1
20260502063805 8 149 0.0 0.0 0.00 0.00 0.00 69 1010.3
20260502063303 8 148 0.0 0.0 0.00 0.00 0.00 71 1010.3
20260502062759 8 153 0.0 0.0 0.00 0.00 0.00 69 1010.1
20260502062257 8 145 0.0 0.0 0.00 0.00 0.00 70 1010.0
20260502061756 8 145 0.0 0.0 0.00 0.00 0.00 70 1009.9
20260502061253 7 146 0.0 0.0 0.00 0.00 0.00 72 1009.7
20260502060752 7 139 0.0 0.0 0.00 0.00 0.00 74 1009.6
20260502060248 7 139 0.0 0.0 0.00 0.00 0.00 76 1009.7
20260502055747 7 139 0.0 0.0 0.00 0.00 0.00 75 1009.6
20260502055244 7 139 0.0 0.0 0.00 0.00 0.00 74 1009.9
20260502054743 7 139 0.0 0.0 0.00 0.00 0.00 74 1009.8
20260502054240 7 139 0.0 0.0 0.00 0.00 0.00 74 1009.9
20260502053738 7 139 0.0 0.0 0.00 0.00 0.00 76 1009.7
20260502053235 7 139 0.0 0.0 0.00 0.00 0.00 76 1009.7
20260502052733 6 139 0.0 0.0 0.00 0.00 0.00 75 1010.1
20260502052231 6 139 0.0 0.0 0.00 0.00 0.00 76 1010.1
20260502051728 6 139 0.0 0.0 0.00 0.00 0.00 76 1009.9
20260502051227 6 139 0.0 0.0 0.00 0.00 0.00 75 1009.9
20260502050723 6 139 0.0 0.0 0.00 0.00 0.00 74 1009.9
20260502050219 6 139 0.0 0.0 0.00 0.00 0.00 74 1010.0
20260502045716 6 139 0.0 0.0 0.00 0.00 0.00 74 1010.0
20260502045213 6 139 0.0 0.0 0.00 0.00 0.00 73 1010.1
20260502044710 6 139 0.0 0.0 0.00 0.00 0.00 74 1010.0
20260502044206 6 139 0.0 0.0 0.00 0.00 0.00 73 1009.9
20260502043704 6 139 0.0 0.0 0.00 0.00 0.00 73 1010.0
20260502043201 6 139 0.0 0.0 0.00 0.00 0.00 73 1009.9
20260502042700 6 139 0.0 0.0 0.00 0.00 0.00 72 1010.1
20260502042158 6 139 0.0 0.0 0.00 0.00 0.00 72 1010.1
20260502041655 6 139 0.0 0.0 0.00 0.00 0.00 72 1010.1
20260502041152 6 139 0.0 0.0 0.00 0.00 0.00 72 1010.2
20260502040649 6 139 0.0 0.0 0.00 0.00 0.00 71 1010.3
20260502040146 7 139 0.0 0.0 0.00 0.00 0.00 70 1010.3
20260502035642 7 139 0.0 0.0 0.00 0.03 0.03 70 1010.1
20260502035139 7 139 0.0 0.0 0.00 0.03 0.03 69 1010.2
20260502034637 7 139 0.0 0.0 0.00 0.03 0.03 69 1010.2
20260502034136 7 139 0.0 0.0 0.00 0.03 0.03 68 1010.2
20260502033633 7 139 0.0 0.0 0.00 0.03 0.03 69 1010.1
20260502033131 7 135 0.0 0.0 0.00 0.03 0.03 69 1010.2
20260502032627 7 135 0.0 0.0 0.00 0.03 0.03 69 1010.1
20260502032123 7 142 0.0 0.0 0.00 0.03 0.03 71 1010.2
20260502031621 7 146 0.0 0.0 0.00 0.03 0.03 71 1010.0
20260502031119 7 160 1.6 1.6 0.00 0.03 0.03 71 1010.2
20260502030618 6 146 1.6 1.6 0.00 0.03 0.03 70 1010.1
20260502030115 6 123 0.0 0.0 0.00 0.03 0.03 69 1010.0
20260502025611 6 123 0.0 0.0 0.00 0.03 0.03 68 1009.9
20260502025110 6 123 0.0 0.0 0.00 0.03 0.03 68 1009.8
20260502024607 6 123 0.0 0.0 0.00 0.03 0.03 68 1009.9
20260502024106 6 123 0.0 0.0 0.00 0.03 0.03 69 1009.9
20260502023603 6 123 0.0 0.0 0.00 0.03 0.03 70 1010.0
20260502023100 6 123 0.0 0.0 0.00 0.03 0.03 69 1009.7
20260502022556 6 123 0.0 0.0 0.00 0.03 0.03 68 1009.8
20260502022054 6 123 0.0 0.0 0.00 0.03 0.03 68 1009.8
20260502021551 6 123 0.0 0.0 0.00 0.03 0.03 67 1009.7
20260502021048 6 123 0.0 0.0 0.00 0.03 0.03 67 1010.0
20260502020546 6 123 0.0 0.0 0.00 0.03 0.03 68 1009.9
20260502020042 6 123 0.0 0.0 0.00 0.03 0.03 66 1010.0
20260502015540 6 123 0.0 0.0 0.00 0.03 0.03 64 1010.0
20260502015036 6 123 0.0 0.0 0.00 0.03 0.03 63 1009.8
20260502014533 6 123 0.0 0.0 0.00 0.03 0.03 63 1009.8
20260502014030 6 123 0.0 0.0 0.00 0.03 0.03 62 1009.8
20260502013526 7 123 0.0 0.0 0.00 0.03 0.03 61 1009.7
20260502013022 7 123 0.0 0.0 0.00 0.03 0.03 61 1009.9
20260502012520 7 123 0.0 0.0 0.00 0.03 0.03 59 1009.7
20260502012017 7 123 0.0 0.0 0.00 0.03 0.03 59 1009.7
20260502011513 7 122 0.0 0.0 0.00 0.03 0.03 60 1009.5
20260502011010 7 123 0.0 0.0 0.00 0.03 0.03 58 1009.7
20260502010508 7 123 0.0 0.0 0.00 0.03 0.03 59 1009.3
20260502010004 7 123 0.0 0.0 0.00 0.03 0.03 58 1009.5
20260502005502 7 124 0.0 0.0 0.00 0.03 0.03 56 1009.6
20260502004959 8 124 0.0 0.0 0.00 0.03 0.03 56 1009.4
20260502004454 8 124 0.0 0.0 0.00 0.03 0.03 56 1009.2
20260502003952 8 124 0.0 0.0 0.00 0.03 0.03 55 1009.5
20260502003449 8 124 0.0 0.0 0.00 0.03 0.03 55 1009.2
20260502002945 8 123 0.0 0.0 0.00 0.03 0.03 54 1009.1
20260502002443 8 123 0.0 0.0 0.00 0.03 0.03 53 1009.1
20260502001940 9 123 0.0 0.0 0.00 0.03 0.03 51 1009.0
20260502001437 9 123 0.0 0.0 0.00 0.03 0.03 51 1009.0
20260502000935 10 123 0.0 0.0 0.00 0.03 0.03 49 1008.7